Погода в Ахкинчу-Барзом

Россия / Чеченская Республика     43°08′02″N   46°11′45″E
темп.,
°C
ветер,
м/с
пор.,
м/с
влажн.,
%
обл.,
%
осадки,
мм/ч
давл.,
гПа
погр.,
м
10 мая, пн
пн1000:00+7з91493100 1.4 10211088
03:00+7зюз81389100 2.9 10221067
06:00+8зюз7127987 1.1 1022874
09:00+12з7105678 1.3 10221832
12:00+13з684768 0.1 10201882
15:00+14зсз4544100 0.1 10191964
18:00+12зюз2458100 0.0 1020172
21:00+7ююз357346 0.0 102286
11 мая, вт
вт1100:00+6юз117377 0.0 102111
03:00+5ю22745 0.0 102014
06:00+7св11700 0.0 101989
09:00+14в455313 0.0 10171431
12:00+17всв65424 0.0 10141761
15:00+16всв885213 0.0 10141027
18:00+13в69680 0.0 1015487
21:00+8в128919 0.0 101730
12 мая, ср
ср1200:00+7юз11910 0.0 101611
03:00+7юз11910 0.0 101610
06:00+9зюз11830 0.0 101677
09:00+14св22665 0.0 1016721
12:00+18св335719 0.0 10161167
15:00+20всв335515 0.0 10151262
18:00+18в22680 0.0 101566
21:00+12юв22800 0.0 101617
13 мая, чт
чт1300:00+12ююв21830 0.0 101513
03:00+11юв11850 0.0 101411
06:00+13в11790 0.0 101559
09:00+19св33620 0.0 1015509
12:00+23всв44555 0.0 1014831
15:00+23всв55575 0.0 1013785
18:00+19всв35740 0.0 1014223
21:00+14ю11903 0.0 101512
14 мая, пт
пт1400:00+13ююз119172 0.0 101412
03:00+13юв11918 0.0 101410
06:00+16ююз01815 0.0 101444
09:00+21св22683 0.0 1014430
12:00+26всв33530 0.0 1013668
15:00+28св45490 0.0 1011750
18:00+23с11683 0.0 101134
21:00+19ю11815 0.0 101114